Weather History for East Milton, MA

Change the Weather History Date:

Monday, November 7, 2011

  Actual Average (KBOS) Record (KBOS)
Temperature  
Mean Temperature 50 °F 47 °F  
Max Temperature 61 °F 54 °F 77 °F (1938)
Min Temperature 39 °F 40 °F 25 °F (1884)
Degree Days  
Heating Degree Days 15 18  
Month to date heating degree days 118  
Since 1 July heating degree days 565  
Cooling Degree Days 0 0  
Month to date cooling degree days 0  
Year to date cooling degree days 747  
Moisture  
Dew Point 37 °F    
Average Humidity 65    
Maximum Humidity 97    
Minimum Humidity 36    
Precipitation  
Precipitation 0.00 in 0.12 in 2.54 in (1953)
Month to date precipitation 0.89  
Year to date precipitation 36.89  
Sea Level Pressure  
Sea Level Pressure 30.27 in    
Wind  
Wind Speed 14 mph (SW)    
Max Wind Speed 18 mph    
Max Gust Speed 21 mph    
T = Trace of Precipitation, MM = Missing Value Source: NWS Daily Summary

Daily Weather History Graph

Daily Weather History Graph

Search for Another Location

Airport:

Trip Planner

Search our weather history database for the weather conditions in past years. The results will help you decide how hot, cold, wet, or windy it might be!

Date:

Astronomy

Nov. 07, 2011 Rise Set
Actual Time 6:24 AM EST 4:31 PM EST
Civil Twilight 5:55 AM EST 5:00 PM EST
Nautical Twilight 5:21 AM EST 5:34 PM EST
Astronomical Twilight 4:48 AM EST 6:06 PM EST
Moon 2:42 PM EST (11/7) 3:21 AM EST (11/7)
Length of Visible Light 11h 05m
Length of Day
10h 06m
Waxing Gibbous, 91% of the Moon is Illuminated
Nov 7
Waxing Gibbous
Nov 10
Full
Nov 18
Last Quarter
Nov 25
New
Dec 2
First Quarter

Hourly Weather History & Observations

Time (EST) Temp. Windchill Dew Point Humidity Pressure Visibility Wind Dir Wind Speed Gust Speed Precip Events Conditions
12:54 AM 41.0 °F 33.1 °F 39.0 °F 93% 30.34 in - SW 15.0 mph - N/A   Unknown
1:54 AM 39.9 °F 31.4 °F 39.0 °F 97% 30.33 in - SW 16.1 mph - N/A   Unknown
2:54 AM 39.9 °F 30.8 °F 39.0 °F 97% 30.32 in - SSW 18.4 mph - N/A   Unknown
3:54 AM 39.9 °F 31.4 °F 37.9 °F 93% 30.30 in - SSW 16.1 mph - N/A   Unknown
4:54 AM 39.9 °F 30.8 °F 37.0 °F 89% 30.30 in - SW 18.4 mph - N/A   Unknown
5:54 AM 39.9 °F 32.1 °F 37.0 °F 89% 30.30 in - SW 13.8 mph - N/A   Unknown
6:54 AM 39.9 °F 31.4 °F 37.0 °F 89% 30.30 in - SW 16.1 mph - N/A   Unknown
7:54 AM 42.1 °F 34.9 °F 37.0 °F 82% 30.31 in - WSW 13.8 mph - N/A   Unknown
8:54 AM 45.0 °F 39.7 °F 37.9 °F 76% 30.31 in - WSW 10.4 mph - N/A   Unknown
10:54 AM 53.1 °F - 36.0 °F 52% 30.28 in - WSW 9.2 mph - N/A   Unknown
11:54 AM 55.9 °F - 35.1 °F 45% 30.25 in - WSW 9.2 mph - N/A   Unknown
12:54 PM 57.9 °F - 36.0 °F 44% 30.24 in - West 9.2 mph - N/A   Unknown
1:54 PM 60.1 °F - 36.0 °F 41% 30.22 in - SW 13.8 mph - N/A   Unknown
2:54 PM 61.0 °F - 34.0 °F 36% 30.22 in - WSW 9.2 mph - N/A   Unknown
3:54 PM 59.0 °F - 35.1 °F 41% 30.22 in - SW 11.5 mph - N/A   Unknown
4:54 PM 57.0 °F - 35.1 °F 44% 30.23 in - SW 9.2 mph - N/A   Unknown
5:54 PM 55.0 °F - 35.1 °F 47% 30.24 in - WSW 10.4 mph - N/A   Unknown
6:54 PM 55.0 °F - 35.1 °F 47% 30.24 in - WSW 12.7 mph - N/A   Unknown
7:54 PM 53.1 °F - 36.0 °F 52% 30.25 in - SW 13.8 mph - N/A   Unknown
8:54 PM 52.0 °F - 37.0 °F 57% 30.25 in - WSW 13.8 mph - N/A   Unknown
9:54 PM 51.1 °F - 37.9 °F 61% 30.24 in - WSW 13.8 mph 20.7 mph N/A   Unknown
10:54 PM 50.0 °F - 37.9 °F 63% 30.23 in - WSW 15.0 mph - N/A   Unknown
11:54 PM 50.0 °F - 37.0 °F 61% 30.23 in - WSW 13.8 mph - N/A   Unknown